QPF
0.04 0.05 0.07 0.07 0.06 0.07 0.07 0.08 0.08 0.06 0.05 0.05 0.05 0.04 0.04 0.03 0.03 0.05 0.05 0.04 0.03 0.04 0.05 0.05 0.05 0.05 0.06 0.05 0.05 0.04 0.04 0.03 0.02 0.02 0.02 0.02 0.02 0.03 0.03 0.04 0.04 0.03 0.03
0.05 0.05 0.06 0.08 0.07 0.06 0.05 0.05 0.05 0.06 0.06 0.06 0.05 0.05 0.03 0.03 0.04 0.05 0.05 0.04 0.03 0.03 0.03 0.05 0.04 0.05 0.05 0.06 0.05 0.04 0.05 0.03 0.03 0.03 0.02 0.02 0.02 0.02 0.02 0.02 0.03 0.02 0.02
0.07 0.06 0.04 0.05 0.06 0.07 0.09 0.08 0.07 0.08 0.06 0.07 0.07 0.06 0.04 0.03 0.04 0.04 0.03 0.03 0.03 0.03 0.04 0.04 0.04 0.04 0.04 0.04 0.06 0.06 0.05 0.05 0.04 0.03 0.02 0.01 0.01 0.01 0.02 0.02 0.03 0.04 0.03
0.08 0.06 0.04 0.03 0.03 0.05 0.09 0.11 0.11 0.09 0.09 0.10 0.09 0.06 0.05 0.05 0.05 0.05 0.03 0.03 0.04 0.04 0.05 0.05 0.05 0.03 0.03 0.04 0.06 0.08 0.08 0.06 0.05 0.05 0.03 0.01 0.02 0.01 0.02 0.02 0.03 0.03 0.03
0.09 0.07 0.04 0.04 0.04 0.06 0.07 0.07 0.08 0.09 0.11 0.13 0.11 0.08 0.07 0.07 0.05 0.04 0.03 0.03 0.03 0.03 0.05 0.05 0.04 0.03 0.03 0.05 0.06 0.08 0.09 0.09 0.08 0.08 0.06 0.04 0.03 0.03 0.03 0.02 0.02 0.02 0.02
0.08 0.07 0.04 0.04 0.05 0.06 0.07 0.07 0.07 0.09 0.10 0.11 0.08 0.06 0.06 0.05 0.04 0.04 0.03 0.03 0.03 0.03 0.04 0.05 0.05 0.04 0.03 0.04 0.05 0.07 0.09 0.09 0.07 0.06 0.05 0.05 0.04 0.03 0.02 0.02 0.02 0.02 0.02
0.06 0.07 0.04 0.04 0.05 0.06 0.07 0.06 0.07 0.09 0.09 0.08 0.08 0.07 0.06 0.04 0.04 0.03 0.03 0.03 0.02 0.03 0.05 0.06 0.06 0.07 0.06 0.04 0.05 0.07 0.07 0.08 0.07 0.05 0.03 0.03 0.04 0.04 0.03 0.03 0.03 0.03 0.02
0.05 0.05 0.05 0.06 0.07 0.07 0.07 0.08 0.07 0.07 0.07 0.08 0.09 0.09 0.08 0.06 0.04 0.03 0.02 0.02 0.03 0.03 0.03 0.04 0.05 0.07 0.07 0.07 0.06 0.05 0.06 0.07 0.07 0.06 0.05 0.04 0.04 0.05 0.05 0.04 0.04 0.03 0.03
0.04 0.03 0.04 0.06 0.08 0.07 0.07 0.07 0.07 0.09 0.09 0.08 0.08 0.10 0.10 0.08 0.06 0.05 0.03 0.02 0.03 0.03 0.04 0.03 0.03 0.03 0.05 0.07 0.07 0.05 0.05 0.05 0.06 0.06 0.07 0.06 0.04 0.04 0.05 0.06 0.06 0.05 0.04
0.03 0.03 0.03 0.06 0.06 0.06 0.07 0.06 0.06 0.08 0.09 0.09 0.07 0.08 0.08 0.07 0.08 0.07 0.05 0.03 0.02 0.03 0.04 0.03 0.03 0.03 0.05 0.05 0.05 0.04 0.04 0.05 0.04 0.04 0.05 0.06 0.06 0.06 0.06 0.06 0.06 0.06 0.06
0.05 0.04 0.05 0.06 0.06 0.06 0.06 0.06 0.07 0.06 0.07 0.09 0.09 0.08 0.07 0.07 0.07 0.07 0.06 0.05 0.03 0.02 0.02 0.02 0.03 0.03 0.04 0.04 0.04 0.04 0.04 0.04 0.04 0.03 0.03 0.04 0.06 0.06 0.06 0.06 0.06 0.06 0.07
0.09 0.10 0.08 0.09 0.08 0.06 0.06 0.06 0.07 0.06 0.06 0.07 0.07 0.07 0.08 0.08 0.07 0.08 0.07 0.07 0.05 0.03 0.03 0.02 0.02 0.02 0.04 0.05 0.05 0.04 0.03 0.03 0.03 0.03 0.03 0.02 0.03 0.04 0.04 0.05 0.06 0.06 0.07
0.05 0.07 0.07 0.07 0.07 0.05 0.05 0.05 0.05 0.06 0.06 0.07 0.06 0.05 0.07 0.07 0.07 0.08 0.08 0.06 0.05 0.03 0.04 0.03 0.02 0.03 0.03 0.04 0.03 0.02 0.03 0.02 0.02 0.03 0.04 0.02 0.02 0.02 0.02 0.03 0.04 0.05 0.05
0.02 0.04 0.05 0.04 0.05 0.05 0.04 0.05 0.05 0.05 0.06 0.07 0.07 0.08 0.08 0.07 0.08 0.08 0.09 0.09 0.07 0.05 0.04 0.03 0.02 0.02 0.03 0.03 0.02 0.03 0.03 0.03 0.02 0.02 0.04 0.04 0.03 0.02 0.02 0.02 0.02 0.02 0.03
0.02 0.03 0.03 0.03 0.03 0.05 0.06 0.07 0.06 0.07 0.06 0.06 0.06 0.06 0.06 0.05 0.05 0.07 0.08 0.10 0.11 0.09 0.05 0.04 0.02 0.01 0.02 0.02 0.03 0.03 0.03 0.03 0.03 0.03 0.03 0.05 0.04 0.03 0.02 0.02 0.02 0.02 0.03
0.03 0.03 0.02 0.02 0.02 0.04 0.05 0.05 0.05 0.04 0.04 0.04 0.04 0.04 0.06 0.06 0.06 0.06 0.06 0.06 0.08 0.08 0.06 0.04 0.03 0.02 0.02 0.01 0.02 0.02 0.02 0.02 0.03 0.02 0.02 0.03 0.04 0.04 0.03 0.02 0.02 0.02 0.02
0.02 0.02 0.01 0.02 0.02 0.03 0.03 0.04 0.04 0.04 0.04 0.04 0.04 0.05 0.07 0.07 0.06 0.06 0.06 0.05 0.06 0.07 0.06 0.04 0.04 0.03 0.03 0.03 0.04 0.04 0.03 0.03 0.03 0.04 0.03 0.03 0.03 0.04 0.03 0.02 0.02 0.02 0.02
0.01 0.01 0.01 0.01 0.01 0.02 0.02 0.03 0.03 0.03 0.03 0.04 0.05 0.05 0.06 0.07 0.07 0.06 0.07 0.06 0.06 0.07 0.07 0.05 0.04 0.04 0.04 0.03 0.04 0.05 0.02 0.02 0.02 0.03 0.03 0.02 0.02 0.02 0.03 0.03 0.02 0.01 0.01
0.01 0.01 0.01 0.01 0.01 0.01 0.02 0.02 0.03 0.03 0.03 0.03 0.04 0.05 0.05 0.06 0.06 0.06 0.06 0.06 0.06 0.07 0.07 0.05 0.04 0.04 0.03 0.02 0.03 0.04 0.03 0.03 0.02 0.01 0.01 0.01 0.01 0.01 0.02 0.02 0.02 0.01 0.01
0.01 0.02 0.02 0.01 0.01 0.01 0.01 0.02 0.02 0.03 0.02 0.02 0.02 0.04 0.04 0.05 0.06 0.06 0.06 0.06 0.07 0.06 0.06 0.05 0.04 0.03 0.02 0.02 0.03 0.04 0.04 0.04 0.03 0.02 0.02 0.01 0.01 0.01 0.01 0.01 0.02 0.02 0.01
0.02 0.03 0.03 0.02 0.02 0.01 0.01 0.02 0.02 0.02 0.02 0.01 0.02 0.03 0.03 0.03 0.05 0.06 0.05 0.05 0.06 0.06 0.05 0.05 0.04 0.03 0.02 0.03 0.03 0.03 0.03 0.03 0.03 0.03 0.03 0.02 0.02 0.01 0.01 0.01 0.01 0.01 0.01
0.04 0.04 0.04 0.03 0.03 0.02 0.01 0.01 0.02 0.03 0.03 0.03 0.04 0.04 0.03 0.03 0.04 0.05 0.05 0.05 0.06 0.06 0.05 0.05 0.04 0.03 0.03 0.04 0.04 0.04 0.03 0.04 0.03 0.03 0.03 0.04 0.02 0.02 0.02 0.02 0.01 0.01 0.01
0.04 0.04 0.04 0.03 0.02 0.02 0.02 0.02 0.01 0.03 0.04 0.05 0.05 0.05 0.04 0.03 0.05 0.05 0.06 0.06 0.06 0.07 0.06 0.06 0.04 0.04 0.04 0.05 0.05 0.04 0.04 0.04 0.04 0.03 0.04 0.04 0.03 0.02 0.03 0.02 0.02 0.02 0.01
0.04 0.03 0.03 0.03 0.02 0.02 0.02 0.02 0.01 0.02 0.03 0.04 0.04 0.05 0.04 0.03 0.04 0.05 0.06 0.06 0.06 0.06 0.07 0.06 0.04 0.03 0.04 0.05 0.06 0.05 0.05 0.05 0.05 0.04 0.04 0.04 0.03 0.02 0.02 0.02 0.02 0.02 0.02
0.05 0.05 0.04 0.03 0.03 0.02 0.03 0.04 0.03 0.03 0.03 0.03 0.03 0.04 0.04 0.04 0.05 0.06 0.05 0.05 0.04 0.04 0.05 0.05 0.05 0.05 0.04 0.04 0.05 0.05 0.06 0.06 0.05 0.04 0.03 0.04 0.03 0.02 0.02 0.01 0.01 0.01 0.01
0.03 0.04 0.05 0.06 0.06 0.04 0.04 0.05 0.06 0.05 0.05 0.04 0.05 0.05 0.06 0.06 0.06 0.05 0.04 0.04 0.03 0.03 0.04 0.04 0.05 0.05 0.05 0.05 0.06 0.05 0.05 0.05 0.04 0.03 0.02 0.03 0.03 0.02 0.02 0.01 0.01 0.01 0.00
MSLP
1015.79 1015.99 1016.17 1016.35 1016.54 1016.77 1017.01 1017.26 1017.48 1017.63 1017.69 1017.67 1017.58 1017.46 1017.39 1017.41 1017.56 1017.88 1018.32 1018.85 1019.41 1019.91 1020.32 1020.60 1020.76 1020.82 1020.84 1020.87 1020.94 1021.08 1021.29 1021.54 1021.79 1022.02 1022.20 1022.33 1022.39 1022.43 1022.44 1022.47 1022.51 1022.56 1022.61
1015.92 1016.10 1016.27 1016.44 1016.63 1016.85 1017.10 1017.36 1017.60 1017.76 1017.84 1017.83 1017.73 1017.59 1017.47 1017.42 1017.49 1017.71 1018.07 1018.52 1019.01 1019.49 1019.91 1020.22 1020.43 1020.56 1020.64 1020.71 1020.81 1020.95 1021.13 1021.34 1021.56 1021.75 1021.91 1022.02 1022.09 1022.14 1022.19 1022.24 1022.30 1022.37 1022.43
1016.06 1016.24 1016.41 1016.58 1016.77 1017.00 1017.26 1017.52 1017.77 1017.96 1018.05 1018.04 1017.94 1017.78 1017.61 1017.49 1017.46 1017.55 1017.78 1018.12 1018.52 1018.95 1019.34 1019.68 1019.94 1020.13 1020.28 1020.41 1020.53 1020.68 1020.84 1021.01 1021.17 1021.32 1021.43 1021.52 1021.60 1021.66 1021.73 1021.82 1021.92 1022.01 1022.09
1016.15 1016.36 1016.54 1016.72 1016.92 1017.14 1017.40 1017.67 1017.92 1018.12 1018.24 1018.25 1018.16 1018.00 1017.79 1017.60 1017.46 1017.43 1017.52 1017.71 1018.00 1018.33 1018.67 1019.00 1019.29 1019.53 1019.74 1019.92 1020.09 1020.24 1020.39 1020.53 1020.65 1020.74 1020.82 1020.88 1020.94 1021.02 1021.11 1021.23 1021.36 1021.49 1021.59
1016.15 1016.39 1016.59 1016.79 1016.99 1017.21 1017.46 1017.73 1017.98 1018.20 1018.35 1018.39 1018.34 1018.19 1017.98 1017.74 1017.53 1017.39 1017.33 1017.37 1017.51 1017.71 1017.97 1018.24 1018.52 1018.79 1019.04 1019.27 1019.48 1019.66 1019.81 1019.93 1020.02 1020.08 1020.12 1020.16 1020.21 1020.29 1020.40 1020.54 1020.70 1020.86 1020.99
1016.02 1016.28 1016.52 1016.73 1016.94 1017.16 1017.40 1017.65 1017.91 1018.15 1018.33 1018.43 1018.43 1018.34 1018.16 1017.93 1017.67 1017.44 1017.26 1017.15 1017.12 1017.18 1017.30 1017.49 1017.72 1017.97 1018.24 1018.51 1018.75 1018.97 1019.15 1019.29 1019.37 1019.42 1019.45 1019.47 1019.51 1019.58 1019.69 1019.84 1020.01 1020.19 1020.34
1015.75 1016.04 1016.30 1016.54 1016.75 1016.97 1017.20 1017.45 1017.70 1017.96 1018.18 1018.35 1018.43 1018.42 1018.32 1018.13 1017.88 1017.60 1017.33 1017.09 1016.90 1016.79 1016.77 1016.83 1016.97 1017.18 1017.43 1017.71 1018.00 1018.26 1018.49 1018.66 1018.78 1018.84 1018.87 1018.89 1018.92 1018.98 1019.07 1019.21 1019.38 1019.56 1019.72
1015.36 1015.68 1015.97 1016.23 1016.47 1016.69 1016.91 1017.15 1017.40 1017.67 1017.94 1018.17 1018.35 1018.44 1018.44 1018.33 1018.13 1017.85 1017.52 1017.18 1016.86 1016.60 1016.41 1016.33 1016.35 1016.48 1016.70 1016.98 1017.30 1017.61 1017.90 1018.13 1018.30 1018.41 1018.46 1018.48 1018.50 1018.54 1018.62 1018.73 1018.87 1019.03 1019.19
1014.90 1015.24 1015.57 1015.86 1016.12 1016.36 1016.58 1016.81 1017.07 1017.34 1017.64 1017.93 1018.19 1018.39 1018.49 1018.49 1018.36 1018.12 1017.79 1017.39 1016.97 1016.58 1016.25 1016.03 1015.93 1015.96 1016.12 1016.39 1016.72 1017.08 1017.43 1017.73 1017.96 1018.12 1018.22 1018.26 1018.27 1018.29 1018.33 1018.40 1018.50 1018.64 1018.78
1014.40 1014.77 1015.13 1015.47 1015.77 1016.03 1016.26 1016.49 1016.74 1017.01 1017.31 1017.63 1017.95 1018.23 1018.43 1018.54 1018.51 1018.34 1018.04 1017.63 1017.17 1016.69 1016.25 1015.91 1015.69 1015.63 1015.73 1015.95 1016.28 1016.67 1017.07 1017.44 1017.74 1017.96 1018.09 1018.16 1018.17 1018.17 1018.17 1018.20 1018.27 1018.37 1018.49
1013.87 1014.27 1014.68 1015.07 1015.41 1015.71 1015.97 1016.20 1016.42 1016.67 1016.96 1017.27 1017.61 1017.94 1018.22 1018.41 1018.48 1018.41 1018.18 1017.81 1017.35 1016.85 1016.35 1015.92 1015.62 1015.47 1015.49 1015.67 1015.98 1016.37 1016.80 1017.22 1017.57 1017.84 1018.01 1018.10 1018.12 1018.11 1018.08 1018.08 1018.11 1018.18 1018.29
1013.32 1013.74 1014.19 1014.63 1015.04 1015.38 1015.66 1015.90 1016.11 1016.32 1016.56 1016.85 1017.17 1017.50 1017.82 1018.09 1018.25 1018.26 1018.13 1017.85 1017.45 1016.96 1016.46 1016.00 1015.64 1015.42 1015.38 1015.50 1015.76 1016.14 1016.56 1016.99 1017.38 1017.68 1017.89 1018.00 1018.04 1018.02 1017.98 1017.96 1017.97 1018.03 1018.14
1012.71 1013.15 1013.63 1014.13 1014.58 1014.98 1015.30 1015.54 1015.74 1015.91 1016.10 1016.33 1016.60 1016.92 1017.25 1017.55 1017.78 1017.90 1017.87 1017.70 1017.39 1016.98 1016.52 1016.06 1015.68 1015.42 1015.31 1015.37 1015.57 1015.90 1016.30 1016.72 1017.11 1017.43 1017.66 1017.80 1017.85 1017.85 1017.83 1017.81 1017.82 1017.89 1018.00
1012.01 1012.45 1012.97 1013.50 1014.01 1014.46 1014.81 1015.08 1015.27 1015.41 1015.55 1015.72 1015.94 1016.21 1016.52 1016.84 1017.13 1017.33 1017.42 1017.36 1017.17 1016.86 1016.47 1016.06 1015.69 1015.40 1015.24 1015.23 1015.36 1015.62 1015.97 1016.35 1016.73 1017.05 1017.30 1017.46 1017.55 1017.58 1017.58 1017.59 1017.63 1017.72 1017.86
1011.21 1011.65 1012.17 1012.73 1013.28 1013.78 1014.18 1014.48 1014.68 1014.81 1014.92 1015.04 1015.21 1015.44 1015.72 1016.05 1016.37 1016.65 1016.83 1016.89 1016.82 1016.62 1016.32 1015.97 1015.62 1015.32 1015.12 1015.05 1015.11 1015.30 1015.57 1015.91 1016.25 1016.57 1016.83 1017.02 1017.15 1017.22 1017.27 1017.32 1017.40 1017.52 1017.69
1010.34 1010.76 1011.27 1011.85 1012.42 1012.95 1013.40 1013.74 1013.98 1014.13 1014.23 1014.33 1014.47 1014.67 1014.94 1015.25 1015.60 1015.93 1016.19 1016.34 1016.38 1016.28 1016.07 1015.78 1015.46 1015.17 1014.94 1014.82 1014.81 1014.93 1015.14 1015.42 1015.74 1016.04 1016.31 1016.53 1016.70 1016.82 1016.92 1017.02 1017.15 1017.31 1017.51
1009.45 1009.85 1010.34 1010.90 1011.48 1012.04 1012.52 1012.91 1013.20 1013.39 1013.52 1013.64 1013.77 1013.96 1014.22 1014.54 1014.89 1015.24 1015.55 1015.78 1015.88 1015.86 1015.73 1015.50 1015.22 1014.93 1014.70 1014.54 1014.49 1014.56 1014.72 1014.96 1015.25 1015.55 1015.82 1016.07 1016.27 1016.43 1016.58 1016.73 1016.90 1017.10 1017.33
1008.64 1009.00 1009.45 1009.98 1010.55 1011.11 1011.62 1012.05 1012.39 1012.64 1012.82 1012.97 1013.14 1013.34 1013.60 1013.91 1014.27 1014.63 1014.95 1015.20 1015.36 1015.39 1015.30 1015.12 1014.88 1014.62 1014.40 1014.24 1014.18 1014.22 1014.36 1014.58 1014.85 1015.14 1015.43 1015.68 1015.91 1016.11 1016.29 1016.47 1016.67 1016.89 1017.14
1007.96 1008.28 1008.69 1009.17 1009.70 1010.24 1010.76 1011.21 1011.59 1011.90 1012.14 1012.34 1012.55 1012.77 1013.04 1013.35 1013.69 1014.04 1014.36 1014.61 1014.78 1014.83 1014.79 1014.65 1014.45 1014.24 1014.06 1013.93 1013.89 1013.94 1014.09 1014.31 1014.58 1014.87 1015.16 1015.42 1015.65 1015.86 1016.05 1016.24 1016.45 1016.68 1016.94
1007.47 1007.75 1008.10 1008.52 1008.99 1009.48 1009.97 1010.43 1010.82 1011.17 1011.45 1011.71 1011.95 1012.20 1012.48 1012.78 1013.11 1013.43 1013.72 1013.96 1014.12 1014.19 1014.17 1014.08 1013.95 1013.80 1013.68 1013.62 1013.64 1013.74 1013.92 1014.16 1014.44 1014.74 1015.01 1015.27 1015.49 1015.68 1015.86 1016.04 1016.24 1016.47 1016.73
1007.15 1007.40 1007.68 1008.03 1008.42 1008.84 1009.27 1009.69 1010.07 1010.42 1010.73 1011.02 1011.29 1011.56 1011.84 1012.13 1012.43 1012.72 1012.98 1013.20 1013.35 1013.43 1013.45 1013.42 1013.36 1013.31 1013.29 1013.32 1013.43 1013.60 1013.84 1014.12 1014.42 1014.71 1014.97 1015.19 1015.38 1015.54 1015.68 1015.83 1016.01 1016.22 1016.48
1006.94 1007.15 1007.37 1007.64 1007.93 1008.26 1008.61 1008.97 1009.32 1009.64 1009.95 1010.24 1010.52 1010.80 1011.08 1011.36 1011.63 1011.89 1012.13 1012.33 1012.48 1012.59 1012.66 1012.70 1012.74 1012.80 1012.90 1013.05 1013.26 1013.53 1013.83 1014.15 1014.46 1014.74 1014.97 1015.15 1015.29 1015.39 1015.49 1015.60 1015.74 1015.93 1016.18
1006.73 1006.91 1007.09 1007.27 1007.48 1007.71 1007.97 1008.25 1008.53 1008.82 1009.10 1009.38 1009.65 1009.93 1010.20 1010.47 1010.73 1010.98 1011.20 1011.40 1011.57 1011.72 1011.86 1011.99 1012.14 1012.32 1012.54 1012.81 1013.13 1013.48 1013.85 1014.20 1014.51 1014.77 1014.97 1015.10 1015.17 1015.21 1015.25 1015.31 1015.42 1015.59 1015.83
1006.44 1006.60 1006.72 1006.84 1006.97 1007.12 1007.30 1007.50 1007.72 1007.96 1008.21 1008.47 1008.74 1009.01 1009.28 1009.55 1009.81 1010.06 1010.29 1010.51 1010.72 1010.93 1011.13 1011.36 1011.61 1011.91 1012.25 1012.62 1013.03 1013.45 1013.86 1014.22 1014.53 1014.76 1014.90 1014.97 1014.98 1014.96 1014.95 1014.97 1015.05 1015.20 1015.42
1005.99 1006.12 1006.22 1006.30 1006.38 1006.48 1006.60 1006.74 1006.92 1007.13 1007.36 1007.62 1007.88 1008.16 1008.44 1008.72 1009.00 1009.27 1009.53 1009.79 1010.04 1010.30 1010.58 1010.89 1011.24 1011.62 1012.04 1012.49 1012.96 1013.41 1013.83 1014.18 1014.46 1014.64 1014.73 1014.75 1014.71 1014.64 1014.58 1014.57 1014.62 1014.75 1014.97
1005.35 1005.48 1005.57 1005.64 1005.71 1005.79 1005.89 1006.02 1006.20 1006.40 1006.64 1006.91 1007.20 1007.50 1007.81 1008.12 1008.42 1008.72 1009.02 1009.31 1009.61 1009.92 1010.26 1010.63 1011.03 1011.46 1011.93 1012.40 1012.88 1013.33 1013.72 1014.04 1014.27 1014.41 1014.45 1014.41 1014.33 1014.23 1014.15 1014.12 1014.15 1014.27 1014.47
Thickness
5766 5765 5764 5762 5764 5763 5762 5761 5761 5760 5760 5760 5760 5759 5758 5757 5758 5758 5756 5751 5749 5747 5746 5745 5744 5742 5741 5739 5738 5736 5735 5734 5732 5731 5730 5729 5728 5726 5725 5724 5722 5721 5720
5765 5764 5763 5762 5762 5762 5762 5761 5761 5760 5760 5760 5759 5758 5757 5757 5756 5755 5756 5753 5750 5748 5747 5746 5744 5743 5741 5740 5738 5737 5736 5734 5733 5731 5730 5729 5728 5727 5726 5724 5723 5722 5721
5764 5764 5765 5763 5763 5762 5760 5760 5760 5760 5759 5759 5758 5757 5757 5756 5756 5754 5754 5754 5753 5750 5748 5747 5745 5744 5742 5741 5739 5738 5736 5735 5733 5732 5730 5729 5728 5727 5726 5725 5724 5723 5721
5764 5764 5764 5764 5762 5762 5761 5760 5760 5759 5758 5757 5757 5757 5757 5756 5755 5754 5754 5754 5754 5753 5750 5748 5746 5744 5743 5742 5740 5739 5737 5736 5734 5732 5731 5730 5729 5728 5727 5726 5725 5723 5722
5764 5764 5764 5763 5761 5761 5760 5760 5760 5758 5756 5755 5756 5756 5756 5756 5755 5755 5754 5754 5753 5752 5752 5749 5747 5745 5743 5742 5741 5740 5738 5737 5735 5733 5732 5731 5729 5728 5727 5726 5725 5724 5722
5764 5764 5764 5762 5761 5760 5758 5758 5756 5755 5755 5754 5756 5755 5755 5756 5755 5756 5755 5755 5753 5752 5752 5751 5749 5747 5744 5743 5742 5740 5739 5737 5736 5734 5733 5731 5730 5729 5728 5726 5725 5724 5723
5765 5763 5764 5762 5760 5760 5758 5758 5756 5755 5754 5754 5752 5750 5753 5756 5755 5755 5755 5755 5755 5753 5752 5750 5749 5749 5747 5744 5742 5741 5739 5737 5736 5735 5733 5732 5730 5729 5728 5727 5725 5724 5723
5765 5765 5762 5763 5761 5759 5757 5756 5754 5754 5754 5754 5750 5747 5746 5748 5751 5755 5755 5754 5754 5754 5753 5751 5749 5747 5747 5747 5745 5741 5739 5737 5736 5735 5733 5732 5731 5730 5729 5727 5726 5724 5723
5765 5764 5763 5762 5760 5760 5758 5756 5755 5752 5751 5753 5753 5748 5743 5742 5746 5751 5753 5753 5752 5752 5753 5752 5750 5749 5747 5746 5745 5742 5739 5737 5736 5734 5733 5732 5731 5729 5728 5727 5725 5724 5723
5766 5764 5763 5761 5760 5761 5759 5758 5757 5754 5751 5750 5751 5750 5749 5749 5742 5743 5749 5752 5752 5750 5751 5752 5751 5749 5746 5745 5743 5741 5738 5736 5735 5734 5733 5731 5730 5729 5727 5726 5725 5723 5722
5767 5765 5763 5761 5760 5760 5759 5757 5756 5754 5753 5751 5750 5750 5748 5746 5746 5741 5740 5744 5748 5750 5750 5750 5750 5749 5747 5745 5743 5741 5738 5735 5733 5732 5731 5730 5729 5728 5726 5725 5724 5722 5721
5768 5766 5764 5762 5761 5760 5759 5757 5756 5754 5753 5751 5750 5750 5747 5745 5744 5743 5740 5741 5743 5746 5748 5749 5749 5748 5746 5745 5742 5739 5736 5734 5732 5731 5729 5728 5727 5726 5725 5724 5723 5722 5720
5769 5766 5765 5762 5761 5759 5758 5757 5755 5754 5752 5749 5748 5748 5749 5748 5747 5744 5741 5741 5741 5744 5745 5747 5747 5745 5745 5743 5740 5736 5734 5732 5730 5729 5728 5727 5726 5724 5723 5722 5721 5720 5719
5771 5767 5764 5761 5759 5758 5757 5755 5755 5752 5750 5748 5748 5746 5746 5747 5747 5745 5741 5739 5737 5739 5742 5743 5745 5744 5741 5740 5737 5733 5732 5730 5728 5727 5725 5724 5723 5722 5721 5720 5719 5718 5716
5770 5766 5762 5760 5759 5756 5755 5754 5753 5750 5749 5748 5748 5745 5744 5745 5744 5744 5742 5739 5734 5731 5734 5739 5741 5741 5739 5736 5733 5731 5730 5728 5726 5724 5723 5722 5720 5719 5717 5716 5715 5714 5713
5768 5764 5761 5759 5757 5755 5753 5752 5751 5748 5746 5745 5744 5742 5741 5742 5741 5740 5739 5738 5736 5733 5731 5736 5736 5737 5734 5733 5730 5729 5728 5726 5723 5721 5720 5718 5717 5715 5714 5713 5712 5710 5709
5765 5762 5760 5757 5756 5753 5751 5749 5749 5746 5744 5742 5741 5739 5737 5736 5737 5737 5736 5735 5733 5731 5727 5731 5733 5732 5728 5727 5726 5724 5724 5723 5722 5718 5717 5715 5713 5711 5710 5709 5707 5706 5705
5763 5760 5758 5755 5753 5751 5749 5747 5744 5743 5741 5738 5737 5735 5734 5733 5731 5732 5730 5730 5729 5727 5724 5722 5725 5726 5723 5722 5721 5720 5721 5721 5719 5716 5713 5711 5709 5707 5705 5704 5703 5701 5700
5760 5758 5755 5752 5750 5748 5746 5744 5742 5740 5738 5735 5733 5731 5730 5728 5726 5726 5725 5725 5725 5724 5722 5719 5719 5720 5719 5718 5716 5715 5716 5714 5715 5713 5709 5707 5704 5703 5701 5699 5698 5696 5695
5757 5754 5752 5749 5747 5744 5742 5741 5739 5737 5734 5732 5730 5728 5726 5724 5722 5720 5720 5719 5719 5717 5716 5715 5714 5713 5712 5712 5710 5709 5708 5708 5707 5708 5705 5703 5700 5697 5696 5694 5693 5691 5690
5755 5751 5748 5745 5743 5741 5739 5736 5734 5733 5730 5728 5726 5724 5722 5719 5716 5714 5716 5714 5713 5712 5711 5710 5709 5708 5706 5703 5703 5703 5702 5702 5701 5702 5700 5699 5697 5695 5692 5689 5687 5686 5684
5751 5748 5745 5743 5740 5739 5733 5729 5727 5727 5725 5723 5720 5718 5716 5714 5711 5708 5706 5705 5704 5703 5703 5702 5703 5700 5698 5698 5696 5695 5695 5694 5692 5695 5692 5692 5692 5690 5688 5685 5682 5680 5678
5746 5743 5741 5739 5736 5732 5727 5723 5720 5720 5719 5717 5714 5712 5712 5710 5706 5704 5701 5698 5697 5695 5694 5694 5694 5693 5692 5692 5689 5688 5686 5686 5685 5687 5685 5684 5685 5683 5682 5680 5677 5675 5672
5741 5738 5736 5734 5730 5727 5721 5718 5715 5714 5714 5711 5708 5706 5703 5701 5700 5697 5696 5694 5693 5691 5689 5688 5687 5687 5686 5684 5682 5681 5680 5679 5679 5679 5678 5675 5677 5676 5676 5674 5671 5668 5666
5733 5731 5729 5727 5724 5720 5715 5711 5707 5708 5706 5704 5702 5700 5697 5694 5690 5687 5687 5686 5685 5684 5682 5679 5677 5676 5675 5674 5673 5673 5673 5673 5672 5673 5672 5669 5670 5669 5669 5668 5666 5662 5660
5726 5724 5722 5720 5717 5714 5708 5704 5700 5702 5700 5698 5695 5692 5687 5684 5680 5678 5678 5677 5675 5676 5675 5673 5669 5668 5668 5667 5665 5665 5666 5666 5667 5666 5666 5662 5662 5661 5659 5661 5659 5657 5654